GW2128 Weather Reports


Display with metric or nautical units.
time (UTC)temp
F
wind
direction
speed
MPH
gust
MPH
rain 1hr
in
rain 24hr
in
rain mn
in
humidity
%
barometer
mb
20260508133037 65 0.0 0.0 0.00 0.00 0.00 54 1017.3
20260508132537 65 0.0 0.0 0.00 0.00 0.00 54 1017.2
20260508132037 64 0.0 0.0 0.00 0.00 0.00 55 1017.3
20260508131537 64 0.0 0.0 0.00 0.00 0.00 55 1017.0
20260508131037 64 0.0 0.0 0.00 0.00 0.00 55 1017.3
20260508130537 64 0.0 0.0 0.00 0.00 0.00 53 1016.9
20260508130037 65 0.0 0.0 0.00 0.00 0.00 54 1017.0
20260508125537 64 0.0 0.0 0.00 0.00 0.00 57 1016.9
20260508125036 62 0.0 0.0 0.00 0.00 0.00 58 1017.2
20260508124536 62 0.0 0.0 0.00 0.00 0.00 58 1017.0
20260508124036 62 0.0 0.0 0.00 0.00 0.00 59 1017.0
20260508123536 62 0.0 0.0 0.00 0.00 0.00 60 1016.7
20260508123036 62 0.0 0.0 0.00 0.00 0.00 59 1017.0
20260508122536 62 0.0 0.0 0.00 0.00 0.00 59 1016.8
20260508122036 63 0.0 0.0 0.00 0.00 0.00 57 1016.9
20260508121536 63 0.0 0.0 0.00 0.00 0.00 58 1016.9
20260508121036 63 0.0 0.0 0.00 0.00 0.00 58 1016.8
20260508120536 63 0.0 0.0 0.00 0.00 0.00 57 1016.8
20260508120036 63 0.0 0.0 0.00 0.00 0.00 58 1016.7
20260508115536 63 256 2.0 4.0 0.00 0.00 0.00 56 1016.6
20260508115036 64 256 2.0 4.0 0.00 0.00 0.00 55 1016.8
20260508114536 65 0.0 0.0 0.00 0.00 0.00 55 1016.7
20260508114036 66 198 2.0 3.0 0.00 0.00 0.00 56 1016.5
20260508113536 66 198 2.0 3.0 0.00 0.00 0.00 58 1016.6
20260508113036 64 165 2.0 3.0 0.00 0.00 0.00 60 1016.6
20260508112536 63 244 4.0 6.0 0.00 0.00 0.00 60 1016.6
20260508112036 63 140 1.0 1.0 0.00 0.00 0.00 60 1016.6
20260508111536 64 169 1.0 2.0 0.00 0.00 0.00 61 1016.4
20260508111036 63 169 1.0 2.0 0.00 0.00 0.00 61 1016.4
20260508110536 62 0.0 0.0 0.00 0.00 0.00 61 1016.7
20260508110036 62 0.0 0.0 0.00 0.00 0.00 62 1016.4
20260508105536 62 0.0 0.0 0.00 0.00 0.00 61 1016.6
20260508105036 62 191 1.0 2.0 0.00 0.00 0.00 61 1016.5
20260508104536 62 191 1.0 2.0 0.00 0.00 0.00 61 1016.4
20260508104036 63 201 2.0 2.0 0.00 0.00 0.00 61 1016.6
20260508103536 63 0.0 0.0 0.00 0.00 0.00 62 1016.6
20260508103036 63 0.0 0.0 0.00 0.00 0.00 61 1016.4
20260508102536 65 185 2.0 2.0 0.00 0.00 0.00 62 1016.3
20260508102036 64 185 2.0 2.0 0.00 0.00 0.00 64 1016.4
20260508101536 64 309 3.0 6.0 0.00 0.00 0.00 64 1016.3
20260508101037 63 289 1.0 2.0 0.00 0.00 0.00 66 1016.2
20260508100536 62 289 1.0 2.0 0.00 0.00 0.00 67 1016.4
20260508100036 61 247 1.0 4.0 0.00 0.00 0.00 67 1016.2
20260508095536 61 167 1.0 2.0 0.00 0.00 0.00 69 1016.2
20260508095036 60 69 1.0 2.0 0.00 0.00 0.00 72 1016.3
20260508094536 59 156 1.0 1.0 0.00 0.00 0.00 73 1016.1
20260508094036 58 0.0 0.0 0.00 0.00 0.00 74 1015.9
20260508093536 57 199 1.0 1.0 0.00 0.00 0.00 74 1016.3
20260508093036 56 199 1.0 1.0 0.00 0.00 0.00 75 1016.2
20260508092536 56 182 1.0 2.0 0.00 0.00 0.00 75 1016.1
20260508092036 55 167 0.0 1.0 0.00 0.00 0.00 76 1016.2
20260508091536 55 167 0.0 1.0 0.00 0.00 0.00 76 1016.2
20260508091036 55 27 1.0 2.0 0.00 0.00 0.00 76 1016.0
20260508090536 54 177 1.0 2.0 0.00 0.00 0.00 76 1016.0
20260508090036 54 34 1.0 2.0 0.00 0.00 0.00 77 1016.0
20260508085536 54 225 2.0 3.0 0.00 0.00 0.00 77 1015.9
20260508085036 54 225 2.0 3.0 0.00 0.00 0.00 77 1016.0
20260508084536 54 96 1.0 1.0 0.00 0.00 0.00 78 1016.0
20260508084036 54 116 1.0 2.0 0.00 0.00 0.00 78 1015.7
20260508083536 54 213 0.0 1.0 0.00 0.00 0.00 78 1015.9
20260508083036 54 213 0.0 1.0 0.00 0.00 0.00 78 1015.9
20260508082536 54 106 1.0 1.0 0.00 0.00 0.00 79 1015.8
20260508082036 54 106 1.0 2.0 0.00 0.00 0.00 79 1015.6
20260508081536 54 232 1.0 2.0 0.00 0.00 0.00 79 1015.4
20260508081036 54 341 2.0 3.0 0.00 0.00 0.00 79 1015.7
20260508080536 54 341 2.0 3.0 0.00 0.00 0.00 79 1015.4
20260508080036 54 207 2.0 3.0 0.00 0.00 0.00 79 1015.4
20260508075536 54 164 1.0 2.0 0.00 0.00 0.00 79 1015.4
20260508075036 54 221 0.0 1.0 0.00 0.00 0.00 80 1015.3
20260508074536 54 141 1.0 1.0 0.00 0.00 0.00 80 1015.3
20260508074036 54 105 1.0 1.0 0.00 0.00 0.00 80 1015.4
20260508073536 54 206 1.0 1.0 0.00 0.00 0.00 80 1015.1
20260508073036 54 128 2.0 2.0 0.00 0.00 0.00 81 1015.2
20260508072536 54 149 1.0 2.0 0.00 0.00 0.00 81 1015.1
20260508072036 54 140 2.0 3.0 0.00 0.00 0.00 81 1015.0
20260508071536 54 261 1.0 1.0 0.00 0.00 0.00 82 1014.8
20260508071036 54 187 0.0 1.0 0.00 0.00 0.00 82 1015.1
20260508070536 54 157 1.0 1.0 0.00 0.00 0.00 82 1014.9
20260508070036 54 115 1.0 2.0 0.00 0.00 0.00 82 1014.8
20260508065536 53 210 0.0 1.0 0.00 0.00 0.00 83 1014.8
20260508065036 53 196 1.0 1.0 0.00 0.00 0.00 83 1014.7
20260508064536 53 245 2.0 3.0 0.00 0.00 0.00 83 1014.6
20260508064038 53 192 0.0 0.0 0.00 0.00 0.00 83 1014.5
20260508063536 52 181 2.0 2.0 0.00 0.00 0.00 83 1014.6
20260508063036 52 125 0.0 1.0 0.00 0.00 0.00 84 1014.5
20260508062536 52 319 0.0 0.0 0.00 0.00 0.00 84 1014.6
20260508062036 52 281 2.0 3.0 0.00 0.00 0.00 84 1014.4
20260508061536 52 117 1.0 3.0 0.00 0.00 0.00 84 1014.3
20260508061035 51 178 1.0 4.0 0.00 0.00 0.00 84 1014.2
20260508060535 51 229 1.0 2.0 0.00 0.00 0.00 84 1014.2
20260508060035 51 285 0.0 1.0 0.00 0.00 0.00 84 1014.1
20260508055535 51 184 0.0 1.0 0.00 0.00 0.00 84 1014.0
20260508055035 50 226 1.0 1.0 0.00 0.00 0.00 84 1013.8
20260508054535 50 70 1.0 2.0 0.00 0.00 0.00 84 1014.2
20260508054035 50 337 0.0 1.0 0.00 0.00 0.00 84 1013.8
20260508053535 50 116 1.0 1.0 0.00 0.00 0.00 84 1014.0
20260508053035 50 174 0.0 1.0 0.00 0.00 0.00 84 1013.8
20260508052535 50 158 1.0 1.0 0.00 0.00 0.00 84 1013.4
20260508052035 50 53 0.0 2.0 0.00 0.00 0.00 84 1013.8
20260508051535 49 115 0.0 2.0 0.00 0.00 0.00 84 1013.7
20260508051035 49 153 1.0 2.0 0.00 0.00 0.00 84 1013.7
20260508050535 49 112 1.0 1.0 0.00 0.00 0.00 84 1013.4
20260508050035 49 158 1.0 2.0 0.00 0.00 0.00 84 1013.7
20260508045535 49 181 2.0 3.0 0.00 0.00 0.00 84 1013.7
20260508045035 49 158 1.0 2.0 0.00 0.00 0.00 83 1013.6
20260508044535 49 346 1.0 2.0 0.00 0.00 0.00 83 1013.4
20260508044035 49 195 0.0 1.0 0.00 0.00 0.00 83 1013.5
20260508043535 49 194 1.0 1.0 0.00 0.00 0.00 82 1013.5
20260508043035 49 16 0.0 1.0 0.00 0.00 0.00 82 1013.4
20260508042535 49 144 0.0 0.0 0.00 0.00 0.00 82 1013.3
20260508042035 49 189 0.0 1.0 0.00 0.00 0.00 82 1013.0
20260508041535 49 157 1.0 1.0 0.00 0.00 0.00 82 1013.1
20260508041035 49 236 1.0 1.0 0.00 0.00 0.00 82 1013.2
20260508040537 49 131 0.0 1.0 0.00 0.00 0.00 82 1013.0
20260508040036 49 202 0.0 1.0 0.00 0.00 0.00 82 1013.1
20260508035535 49 14 0.0 0.0 0.00 0.00 0.00 82 1013.1
20260508035035 49 215 1.0 2.0 0.00 0.00 0.00 81 1013.1
20260508034535 49 109 1.0 1.0 0.00 0.00 0.00 81 1012.9
20260508034035 49 127 0.0 1.0 0.00 0.00 0.00 81 1012.9
20260508033535 49 191 0.0 1.0 0.00 0.00 0.00 81 1012.9
20260508033035 49 201 1.0 2.0 0.00 0.00 0.00 81 1013.0
20260508032535 49 46 1.0 3.0 0.00 0.00 0.00 80 1013.0
20260508032035 49 203 1.0 2.0 0.00 0.00 0.00 80 1012.9
20260508031535 49 149 1.0 1.0 0.00 0.00 0.00 80 1013.0
20260508031037 49 242 1.0 2.0 0.00 0.00 0.00 79 1012.9
20260508030535 49 148 0.0 1.0 0.00 0.00 0.00 79 1012.9
20260508030035 49 268 1.0 2.0 0.00 0.00 0.00 79 1013.0
20260508025535 49 173 0.0 1.0 0.00 0.00 0.00 79 1012.9
20260508025035 49 142 1.0 1.0 0.00 0.00 0.00 79 1012.9
20260508024535 49 218 2.0 2.0 0.00 0.00 0.00 78 1013.1
20260508024035 49 179 0.0 0.0 0.00 0.00 0.00 78 1012.7
20260508023535 49 204 1.0 2.0 0.00 0.00 0.00 78 1013.1
20260508023035 49 211 2.0 4.0 0.00 0.00 0.00 78 1013.0
20260508022535 49 202 2.0 4.0 0.00 0.00 0.00 78 1012.8
20260508022035 49 208 0.0 2.0 0.00 0.00 0.00 78 1013.1
20260508021535 49 198 2.0 2.0 0.00 0.00 0.00 78 1012.9
20260508021035 49 121 1.0 1.0 0.00 0.00 0.00 78 1012.8
20260508020535 49 94 1.0 1.0 0.00 0.00 0.00 77 1013.0
20260508020035 49 129 2.0 3.0 0.00 0.00 0.00 78 1012.8
20260508015535 49 226 1.0 2.0 0.00 0.00 0.00 78 1012.7
20260508015035 49 198 2.0 2.0 0.00 0.00 0.00 78 1012.8
20260508014535 49 225 2.0 3.0 0.00 0.00 0.00 78 1012.6
20260508014035 49 165 2.0 2.0 0.00 0.00 0.00 78 1012.8
20260508013535 49 95 2.0 4.0 0.00 0.00 0.00 78 1012.8
20260508013035 49 201 1.0 3.0 0.00 0.00 0.00 78 1012.7
20260508012535 49 227 1.0 2.0 0.00 0.00 0.00 77 1013.1
20260508012035 49 234 0.0 0.0 0.00 0.00 0.00 77 1013.0
20260508011537 49 178 1.0 2.0 0.00 0.00 0.00 77 1013.2
20260508011035 49 206 0.0 1.0 0.00 0.00 0.00 77 1012.8
20260508010535 49 206 0.0 1.0 0.00 0.00 0.00 77 1013.0
20260508010035 49 149 1.0 1.0 0.00 0.00 0.00 77 1013.0
20260508005535 49 186 0.0 1.0 0.00 0.00 0.00 77 1013.0
20260508005035 49 187 1.0 1.0 0.00 0.00 0.00 77 1012.8
20260508004535 49 224 1.0 2.0 0.00 0.00 0.00 77 1013.1
20260508004037 49 89 1.0 1.0 0.00 0.00 0.00 77 1013.0
20260508003535 49 82 2.0 3.0 0.00 0.00 0.00 77 1012.8
20260508003035 49 188 0.0 0.0 0.00 0.00 0.00 77 1012.8
20260508002535 49 243 1.0 3.0 0.00 0.00 0.00 77 1012.9
20260508002035 49 0.0 0.0 0.00 0.00 0.00 77 1012.8
20260508001535 49 103 2.0 3.0 0.00 0.00 0.00 78 1012.6
20260508001035 49 103 2.0 3.0 0.00 0.00 0.00 78 1012.9
20260508000535 49 283 1.0 2.0 0.00 0.00 0.00 77 1012.7
20260508000035 49 293 2.0 3.0 0.00 0.00 0.00 77 1012.8
20260507235535 49 41 0.0 1.0 0.00 0.00 0.00 77 1012.8
20260507235035 49 308 1.0 2.0 0.00 0.00 0.00 77 1013.1
20260507234535 49 211 1.0 2.0 0.00 0.00 0.00 77 1013.0
20260507234035 49 352 0.0 0.0 0.00 0.00 0.00 77 1012.8
20260507233535 50 352 0.0 0.0 0.00 0.00 0.00 77 1013.0
20260507233034 50 232 1.0 2.0 0.00 0.00 0.00 77 1013.0
20260507232535 50 186 0.0 1.0 0.00 0.00 0.00 77 1013.0
20260507232034 50 1 0.0 1.0 0.00 0.00 0.00 77 1012.8
20260507231535 50 249 1.0 2.0 0.00 0.00 0.00 76 1012.9
20260507231034 50 128 1.0 1.0 0.00 0.00 0.00 76 1012.8
20260507230534 50 323 0.0 0.0 0.00 0.00 0.00 76 1013.1
20260507230035 50 45 0.0 0.0 0.00 0.00 0.00 76 1012.9
20260507225534 50 306 2.0 3.0 0.00 0.00 0.00 76 1013.0
20260507225034 50 171 0.0 0.0 0.00 0.00 0.00 76 1012.8
20260507224534 50 279 0.0 2.0 0.00 0.00 0.00 76 1012.8
20260507224034 50 328 0.0 1.0 0.00 0.00 0.00 76 1013.0
20260507223534 50 210 0.0 1.0 0.00 0.00 0.00 76 1013.0
20260507223034 51 212 1.0 1.0 0.00 0.00 0.00 76 1012.9
20260507222534 51 275 0.0 1.0 0.00 0.00 0.00 76 1012.8
20260507222034 51 188 1.0 2.0 0.00 0.00 0.00 76 1012.9
20260507221534 51 165 1.0 2.0 0.00 0.00 0.00 76 1012.9
20260507221034 51 64 1.0 1.0 0.00 0.00 0.00 76 1012.9
20260507220535 51 67 0.0 1.0 0.00 0.00 0.00 76 1012.9
20260507220034 51 209 0.0 1.0 0.00 0.00 0.00 76 1012.9
20260507215534 51 165 0.0 1.0 0.00 0.00 0.00 75 1012.9
20260507215034 50 196 0.0 2.0 0.00 0.00 0.00 75 1012.9
20260507214534 51 59 0.0 2.0 0.00 0.00 0.00 75 1012.7
20260507214034 51 169 1.0 1.0 0.00 0.00 0.00 75 1012.9
20260507213534 51 206 0.0 1.0 0.00 0.00 0.00 75 1012.8
20260507213034 51 120 0.0 2.0 0.00 0.00 0.00 74 1012.9
20260507212534 51 56 1.0 2.0 0.00 0.00 0.00 75 1012.8
20260507212034 51 196 1.0 2.0 0.00 0.00 0.00 74 1012.9
20260507211534 51 80 0.0 0.0 0.00 0.00 0.00 74 1013.1
20260507211034 51 36 0.0 1.0 0.00 0.00 0.00 74 1012.7
20260507210534 52 202 0.0 1.0 0.00 0.00 0.00 74 1012.7
20260507210035 52 199 1.0 2.0 0.00 0.00 0.00 74 1012.9
20260507205534 52 181 2.0 3.0 0.00 0.00 0.00 74 1013.2
20260507205035 52 201 1.0 8.0 0.00 0.00 0.00 74 1012.9
20260507204534 52 208 2.0 2.0 0.00 0.00 0.00 73 1012.7
20260507204034 52 201 2.0 6.0 0.00 0.00 0.00 73 1012.7
20260507203534 52 202 2.0 3.0 0.00 0.00 0.00 73 1012.9
20260507203034 52 189 3.0 4.0 0.00 0.00 0.00 73 1012.5
20260507202534 52 189 3.0 4.0 0.00 0.00 0.00 73 1012.7
20260507202034 52 249 1.0 3.0 0.00 0.00 0.00 73 1012.7
20260507201534 52 190 2.0 2.0 0.00 0.00 0.00 72 1012.5
20260507201034 53 204 2.0 4.0 0.00 0.00 0.00 72 1012.6
20260507200534 53 217 2.0 2.0 0.00 0.00 0.00 72 1012.7
20260507200034 53 132 2.0 3.0 0.00 0.00 0.00 72 1012.5
20260507195534 53 10 3.0 6.0 0.00 0.00 0.00 72 1012.7
20260507195034 53 197 2.0 2.0 0.00 0.00 0.00 72 1012.8
20260507194534 53 213 0.0 3.0 0.00 0.00 0.00 72 1012.4
20260507194034 53 140 2.0 3.0 0.00 0.00 0.00 71 1012.4
20260507193534 53 183 1.0 4.0 0.00 0.00 0.00 71 1012.5
20260507193034 53 140 2.0 3.0 0.00 0.00 0.00 70 1012.3
20260507192534 53 290 1.0 1.0 0.00 0.00 0.00 70 1012.2
20260507192034 53 121 2.0 2.0 0.00 0.00 0.00 70 1012.2
20260507191534 54 29 1.0 2.0 0.00 0.00 0.00 70 1012.1
20260507191036 54 185 2.0 3.0 0.00 0.00 0.00 70 1012.4
20260507190534 54 83 1.0 1.0 0.00 0.00 0.00 70 1012.1
20260507190034 54 289 2.0 3.0 0.00 0.00 0.00 70 1012.2
20260507185534 54 321 2.0 3.0 0.00 0.00 0.00 70 1012.2
20260507185034 54 177 2.0 2.0 0.00 0.00 0.00 69 1012.1
20260507184534 54 288 0.0 1.0 0.00 0.00 0.00 69 1012.1
20260507184034 55 288 0.0 1.0 0.00 0.00 0.00 69 1011.8
20260507183534 55 181 1.0 1.0 0.00 0.00 0.00 68 1012.0
20260507183034 55 32 1.0 2.0 0.00 0.00 0.00 68 1012.1
20260507182534 55 180 2.0 2.0 0.00 0.00 0.00 67 1012.1
20260507182034 55 185 1.0 2.0 0.00 0.00 0.00 67 1011.8
20260507181534 55 237 2.0 4.0 0.00 0.00 0.00 67 1011.9
20260507181034 55 119 4.0 8.0 0.00 0.00 0.00 68 1011.8
20260507180534 55 272 1.0 2.0 0.00 0.00 0.00 68 1011.8
20260507180034 55 183 2.0 3.0 0.00 0.00 0.00 67 1011.8
20260507175534 55 114 1.0 1.0 0.00 0.00 0.00 67 1011.9
20260507175034 55 79 0.0 1.0 0.00 0.00 0.00 67 1012.0
20260507174534 55 192 1.0 1.0 0.00 0.00 0.00 66 1011.8
20260507174034 55 260 2.0 3.0 0.00 0.00 0.00 66 1012.0
20260507173534 56 192 0.0 1.0 0.00 0.00 0.00 65 1012.0
20260507173034 56 301 1.0 1.0 0.00 0.00 0.00 64 1011.9
20260507172534 57 153 0.0 1.0 0.00 0.00 0.00 64 1011.9
20260507172034 57 180 1.0 6.0 0.00 0.00 0.00 63 1011.9
20260507171534 58 177 2.0 2.0 0.00 0.00 0.00 63 1011.9
20260507171034 58 246 2.0 3.0 0.00 0.00 0.00 63 1011.9
20260507170534 59 300 1.0 1.0 0.00 0.00 0.00 63 1012.2
20260507170034 59 57 2.0 3.0 0.00 0.00 0.00 62 1012.0
20260507165534 59 240 1.0 1.0 0.00 0.00 0.00 62 1012.0
20260507165034 60 175 2.0 3.0 0.00 0.00 0.00 62 1012.0
20260507164534 60 177 2.0 2.0 0.00 0.00 0.00 62 1012.0
20260507164034 60 167 1.0 2.0 0.00 0.00 0.00 63 1012.4
20260507163534 60 260 1.0 2.0 0.00 0.00 0.00 63 1012.2
20260507163034 59 94 2.0 3.0 0.00 0.00 0.00 63 1012.3
20260507162534 59 264 1.0 1.0 0.00 0.00 0.00 63 1012.3
20260507162034 59 116 0.0 1.0 0.00 0.00 0.00 63 1012.2
20260507161534 59 185 1.0 1.0 0.00 0.00 0.00 62 1012.4
20260507161034 59 59 0.0 1.0 0.00 0.00 0.00 62 1012.0
20260507160534 59 200 1.0 3.0 0.00 0.00 0.00 62 1012.1
20260507160034 59 152 1.0 2.0 0.00 0.00 0.00 62 1011.9
20260507155534 59 196 1.0 2.0 0.00 0.00 0.00 62 1012.1
20260507155034 59 195 1.0 2.0 0.00 0.00 0.00 62 1012.1
20260507154534 59 205 4.0 6.0 0.00 0.00 0.00 62 1012.3
20260507154034 59 166 2.0 3.0 0.00 0.00 0.00 63 1012.2
20260507153534 59 201 0.0 1.0 0.00 0.00 0.00 63 1012.3
20260507153033 59 170 2.0 7.0 0.00 0.00 0.00 63 1012.3
20260507152533 59 344 2.0 4.0 0.00 0.00 0.00 63 1012.4
20260507152033 59 32 2.0 2.0 0.00 0.00 0.00 64 1012.2
20260507151534 59 205 2.0 3.0 0.00 0.00 0.00 63 1012.4
20260507151034 59 189 1.0 2.0 0.00 0.00 0.00 63 1012.4
20260507150534 59 201 2.0 3.0 0.00 0.00 0.00 63 1012.5
20260507150034 59 258 2.0 2.0 0.00 0.00 0.00 63 1012.7
20260507145533 59 179 4.0 4.0 0.00 0.00 0.00 63 1012.6
20260507145033 59 181 1.0 4.0 0.00 0.00 0.00 64 1012.3
20260507144534 59 209 2.0 4.0 0.00 0.00 0.00 63 1012.6
20260507144033 59 218 2.0 4.0 0.00 0.00 0.00 65 1012.7
20260507143533 59 128 2.0 2.0 0.00 0.00 0.00 65 1012.9
20260507143033 59 203 2.0 6.0 0.00 0.00 0.00 64 1012.8
20260507142533 58 185 2.0 2.0 0.00 0.00 0.00 65 1012.5
20260507142033 59 245 3.0 6.0 0.00 0.00 0.00 65 1012.7
20260507141533 59 186 4.0 6.0 0.00 0.00 0.00 65 1012.8
20260507141033 59 191 2.0 4.0 0.00 0.00 0.00 65 1012.9
20260507140533 59 142 3.0 8.0 0.00 0.00 0.00 65 1013.1
20260507140033 59 176 4.0 6.0 0.00 0.00 0.00 65 1013.0
20260507135533 59 207 2.0 3.0 0.00 0.00 0.00 65 1013.1
20260507135033 59 288 1.0 3.0 0.00 0.00 0.00 65 1013.2
20260507134533 58 189 4.0 4.0 0.00 0.00 0.00 66 1013.0
20260507134033 58 202 2.0 3.0 0.00 0.00 0.00 66 1013.2
20260507133533 57 202 1.0 3.0 0.00 0.00 0.00 67 1013.1